Vorticity
6 12 10 7 8 7 5 3 7 7 5 5 7 6 4 6 6 6 3 3 1 3 1 12 6 4 5 4 4 5 3 5
4 2 8 9 7 8 3 3 6 11 9 7 10 12 5 4 5 4 3 3 3 4 4 10 4 5 4 5 3 2 4 5
4 3 10 10 7 6 5 4 6 4 5 10 10 7 6 6 5 5 3 4 6 5 12 6 5 3 5 4 3 3 5 6
5 3 8 11 6 7 5 5 6 4 6 10 13 11 8 6 7 9 8 7 6 10 10 5 4 5 5 3 3 3 5 7
8 2 -0 14 7 8 3 6 6 3 6 11 11 10 10 11 10 10 9 7 12 7 6 4 5 5 4 4 4 2 5 5
7 4 10 19 10 5 6 5 6 3 6 11 9 9 9 10 9 9 8 12 5 5 6 6 4 4 3 4 3 3 4 6
9 4 2 10 6 6 5 6 6 5 7 9 8 8 9 8 7 8 9 6 6 5 3 5 4 4 3 3 3 3 4 6
13 13 3 8 5 5 6 5 5 7 7 8 9 8 8 6 9 8 7 6 5 5 4 6 5 4 3 3 2 3 3 5
23 22 15 1 -5 6 6 5 7 9 9 9 9 8 8 6 8 7 8 8 5 5 7 6 5 5 3 3 2 2 4 4
15 8 -5 5 14 7 4 5 8 9 9 10 8 8 8 7 7 7 7 8 7 5 6 5 5 4 3 2 2 1 3 5
7 -4 24 9 8 7 9 8 9 10 9 10 9 9 9 7 7 7 8 7 6 4 4 5 7 4 3 2 3 2 2 6
2 9 13 5 3 4 7 8 9 11 9 8 9 8 8 7 6 6 6 5 4 3 5 6 7 6 3 2 0 2 6 11
10 8 16 4 2 2 9 10 13 11 10 11 8 6 7 7 6 5 5 4 4 4 6 6 6 7 4 3 2 3 6 8
9 4 30 0 11 14 11 12 12 10 9 12 7 6 7 7 7 4 4 4 5 5 6 6 5 6 5 3 3 8 8 9
15 10 6 5 10 2 0 9 13 10 10 8 7 6 3 5 4 4 5 4 4 4 5 3 16 -2 12 -1 9 5 7 10
-3 13 9 12 7 -6 5 8 9 10 6 7 6 5 6 8 -1 6 5 3 6 8 15 8 15 -2 29 -20 12 3 8 17
16 3 8 13 6 -2 1 7 11 9 6 4 4 8 4 10 -3 7 4 5 7 7 4 4 8 9 16 34 -17 8 20 21
17 8 12 7 14 7 12 12 11 9 8 6 7 5 2 9 7 13 0 7 4 3 10 38 1 50 6 -23 12 13 28 8
19 7 5 11 13 14 14 9 8 7 6 8 6 7 6 7 5 5 2 4 4 5 9 1 14 14 7 24 12 28 13 8
Height
5846 5844 5844 5843 5842 5842 5841 5840 5839 5838 5836 5836 5834 5831 5831 5830 5829 5829 5827 5826 5825 5823 5821 5819 5818 5814 5812 5810 5806 5803 5800 5796
5842 5841 5841 5840 5839 5838 5838 5837 5835 5834 5833 5832 5831 5830 5828 5827 5826 5825 5824 5823 5821 5819 5817 5814 5813 5811 5808 5806 5802 5799 5796 5792
5838 5837 5837 5836 5835 5834 5835 5834 5832 5830 5829 5828 5827 5825 5824 5824 5823 5822 5821 5819 5816 5814 5812 5810 5808 5806 5804 5801 5798 5795 5791 5787
5833 5832 5832 5832 5831 5831 5831 5830 5828 5826 5824 5822 5821 5820 5820 5818 5818 5817 5817 5815 5813 5811 5808 5806 5804 5801 5798 5796 5793 5789 5785 5780
5829 5827 5825 5828 5827 5827 5826 5826 5824 5822 5820 5818 5817 5816 5816 5816 5813 5813 5812 5811 5809 5807 5805 5802 5799 5796 5792 5789 5786 5783 5778 5774
5825 5823 5821 5823 5823 5822 5821 5821 5819 5818 5816 5815 5813 5812 5811 5809 5809 5807 5807 5806 5804 5802 5800 5797 5794 5790 5786 5783 5779 5776 5771 5764
5819 5816 5816 5818 5817 5816 5816 5815 5814 5813 5812 5810 5808 5807 5805 5804 5803 5802 5801 5801 5799 5797 5796 5793 5789 5785 5780 5777 5773 5768 5763 5757
5811 5809 5811 5812 5811 5811 5811 5809 5809 5808 5807 5804 5803 5802 5800 5799 5799 5797 5797 5796 5794 5792 5789 5786 5783 5779 5775 5770 5766 5762 5756 5750
5800 5801 5803 5805 5805 5805 5804 5803 5803 5803 5801 5799 5798 5796 5795 5794 5794 5793 5792 5790 5788 5786 5783 5780 5776 5773 5769 5765 5760 5755 5748 5742
5791 5793 5796 5797 5798 5798 5798 5798 5797 5796 5794 5793 5792 5790 5789 5788 5787 5786 5786 5784 5782 5779 5776 5772 5769 5766 5761 5756 5751 5745 5740 5734
5785 5788 5789 5790 5791 5792 5792 5791 5790 5788 5788 5787 5786 5784 5784 5783 5782 5780 5779 5777 5775 5771 5768 5765 5761 5756 5752 5747 5741 5737 5731 5724
5779 5782 5783 5785 5785 5786 5785 5784 5783 5782 5781 5781 5779 5778 5777 5777 5775 5773 5771 5768 5765 5764 5760 5756 5751 5748 5743 5738 5732 5726 5719 5713
5773 5775 5776 5778 5779 5779 5777 5777 5777 5776 5775 5775 5774 5772 5770 5770 5769 5767 5764 5761 5758 5754 5751 5746 5742 5737 5732 5726 5719 5714 5709 5704
5766 5768 5767 5769 5770 5770 5769 5769 5769 5769 5769 5769 5767 5765 5764 5763 5761 5759 5756 5752 5748 5744 5740 5735 5729 5726 5720 5714 5709 5705 5699 5694
5759 5760 5761 5762 5762 5762 5762 5762 5761 5761 5762 5762 5760 5759 5757 5755 5752 5749 5746 5742 5737 5733 5730 5725 5719 5713 5709 5703 5699 5695 5690 5684
5752 5753 5753 5755 5756 5755 5755 5754 5754 5754 5754 5753 5752 5751 5749 5747 5745 5741 5736 5731 5727 5724 5721 5716 5709 5704 5697 5693 5688 5685 5679 5673
5745 5746 5747 5747 5749 5749 5748 5746 5747 5747 5747 5747 5745 5744 5742 5737 5732 5732 5728 5724 5720 5715 5710 5705 5697 5691 5687 5681 5678 5673 5667 5662
5738 5738 5739 5741 5742 5742 5741 5740 5740 5740 5740 5739 5737 5735 5733 5729 5726 5722 5719 5715 5710 5703 5696 5690 5682 5678 5675 5673 5666 5659 5652 5648
5730 5731 5732 5734 5734 5734 5734 5734 5734 5734 5733 5731 5728 5726 5723 5721 5718 5714 5709 5704 5696 5688 5683 5680 5673 5669 5664 5658 5650 5643 5639 5637